02:02 MESZ | 02.09.2026 Profi-Wetter| Mobile Seite| Kontakt| Impressum| Datenschutz
Social

Wetterstation Wiesbaden

Messwerte
  Temperatur Wetter Niederschlag Luftdruck Wind
Mi, 00:55 Uhr 15° 0 mm 1021 hPa -
Di, 23:55 Uhr 16° 0 mm 1021 hPa 5 km/h N
Di, 22:55 Uhr 19° 0 mm 1021 hPa 8 km/h N
Di, 21:55 Uhr 19° 0 mm 1021 hPa 11 km/h NO
Di, 20:55 Uhr 20° 0 mm 1020 hPa 5 km/h N
Di, 19:55 Uhr 22° 0 mm 1020 hPa 8 km/h W
Di, 18:55 Uhr 24° 0 mm 1020 hPa 13 km/h W
Di, 17:55 Uhr 24° 0 mm 1020 hPa 16 km/h W
Di, 16:55 Uhr 25° 0 mm 1020 hPa 19 km/h W
Di, 15:55 Uhr 25° 0 mm 1020 hPa 16 km/h W
Di, 14:55 Uhr 25° 0 mm 1020 hPa 21 km/h SW
Di, 13:55 Uhr 24° 0 mm 1020 hPa 14 km/h SW
Di, 12:55 Uhr 22° 0 mm 1021 hPa 16 km/h SW
Di, 11:55 Uhr 21° 0 mm 1021 hPa 13 km/h W
Di, 10:55 Uhr 19° 0 mm 1021 hPa 13 km/h W
Di, 09:55 Uhr 17° 0 mm 1021 hPa 11 km/h W
Di, 08:55 Uhr 16° 0 mm 1021 hPa 11 km/h W
Di, 07:55 Uhr 14° 0 mm 1020 hPa 8 km/h N
Di, 06:55 Uhr 13° 0 mm 1020 hPa -
Di, 05:55 Uhr 14° 0 mm 1020 hPa -

Alle Zeitangaben MESZ